| time (UTC) | temp F | wind direction | speed MPH | gust MPH | rain 1hr in | rain 24hr in | rain mn in | humidity % | barometer mb |
| 20260506034905 | 62 | 209 | 4.0 | 14.0 | 0.00 | 0.00 | 0.00 | 64 | 1008.1 |
| 20260506034402 | 62 | 168 | 6.0 | 9.0 | 0.00 | 0.00 | 0.00 | 64 | 1008.1 |
| 20260506033859 | 62 | 161 | 2.0 | 11.0 | 0.00 | 0.00 | 0.00 | 64 | 1008.2 |
| 20260506033356 | 62 | 283 | 4.0 | 14.0 | 0.00 | 0.00 | 0.00 | 64 | 1008.2 |
| 20260506032853 | 62 | 146 | 7.0 | 11.0 | 0.00 | 0.00 | 0.00 | 65 | 1008.2 |
| 20260506032350 | 62 | 257 | 9.0 | 15.0 | 0.00 | 0.00 | 0.00 | 65 | 1008.1 |
| 20260506031847 | 62 | 203 | 4.0 | 11.0 | 0.00 | 0.00 | 0.00 | 65 | 1008.2 |
| 20260506031344 | 62 | 159 | 0.0 | 10.0 | 0.00 | 0.00 | 0.00 | 65 | 1008.2 |
| 20260506030842 | 61 | 264 | 4.0 | 7.0 | 0.00 | 0.00 | 0.00 | 65 | 1008.0 |
| 20260506030340 | 61 | 155 | 3.0 | 7.0 | 0.00 | 0.00 | 0.00 | 65 | 1008.1 |
| 20260506025836 | 61 | 144 | 7.0 | 8.0 | 0.00 | 0.00 | 0.00 | 65 | 1008.0 |
| 20260506025332 | 61 | 85 | 2.0 | 6.0 | 0.00 | 0.00 | 0.00 | 66 | 1008.1 |
| 20260506024830 | 61 | 135 | 2.0 | 7.0 | 0.00 | 0.00 | 0.00 | 65 | 1008.2 |
| 20260506024326 | 61 | 139 | 2.0 | 9.0 | 0.00 | 0.00 | 0.00 | 65 | 1008.1 |
| 20260506023823 | 61 | 138 | 3.0 | 9.0 | 0.00 | 0.00 | 0.00 | 65 | 1008.1 |
| 20260506023320 | 61 | 249 | 4.0 | 10.0 | 0.00 | 0.00 | 0.00 | 65 | 1008.2 |
| 20260506022816 | 61 | 173 | 2.0 | 8.0 | 0.00 | 0.00 | 0.00 | 65 | 1008.2 |
| 20260506022314 | 61 | 80 | 2.0 | 4.0 | 0.00 | 0.00 | 0.00 | 65 | 1008.4 |
| 20260506021812 | 61 | 69 | 2.0 | 6.0 | 0.00 | 0.00 | 0.00 | 65 | 1008.3 |
| 20260506021309 | 61 | 248 | 7.0 | 7.0 | 0.00 | 0.00 | 0.00 | 64 | 1008.2 |
| 20260506020805 | 61 | 196 | 5.0 | 10.0 | 0.00 | 0.00 | 0.00 | 64 | 1008.2 |
| 20260506020303 | 61 | 184 | 2.0 | 9.0 | 0.00 | 0.00 | 0.00 | 64 | 1008.1 |
| 20260506015801 | 61 | 153 | 2.0 | 4.0 | 0.00 | 0.00 | 0.00 | 64 | 1008.1 |
| 20260506015258 | 61 | 70 | 3.0 | 11.0 | 0.00 | 0.00 | 0.00 | 64 | 1008.1 |
| 20260506014754 | 61 | 156 | 7.0 | 9.0 | 0.00 | 0.00 | 0.00 | 63 | 1008.0 |
| 20260506014251 | 62 | 232 | 6.0 | 6.0 | 0.00 | 0.00 | 0.00 | 63 | 1008.0 |
| 20260506013748 | 62 | 186 | 1.0 | 9.0 | 0.00 | 0.00 | 0.00 | 62 | 1008.0 |
| 20260506013246 | 62 | 227 | 5.0 | 6.0 | 0.00 | 0.00 | 0.00 | 62 | 1007.7 |
| 20260506012742 | 62 | 147 | 7.0 | 9.0 | 0.00 | 0.00 | 0.00 | 61 | 1007.9 |
| 20260506012239 | 63 | 171 | 4.0 | 9.0 | 0.00 | 0.00 | 0.00 | 61 | 1007.9 |
| 20260506011736 | 63 | 146 | 9.0 | 11.0 | 0.00 | 0.00 | 0.00 | 60 | 1007.7 |
| 20260506011232 | 63 | 107 | 6.0 | 7.0 | 0.00 | 0.00 | 0.00 | 60 | 1007.7 |
| 20260506010731 | 63 | 175 | 2.0 | 10.0 | 0.00 | 0.00 | 0.00 | 60 | 1007.5 |
| 20260506010228 | 63 | 142 | 4.0 | 8.0 | 0.00 | 0.00 | 0.00 | 59 | 1007.5 |
| 20260506005725 | 64 | 217 | 4.0 | 6.0 | 0.00 | 0.00 | 0.00 | 60 | 1007.4 |
| 20260506005222 | 64 | 173 | 3.0 | 10.0 | 0.00 | 0.00 | 0.00 | 59 | 1007.3 |
| 20260506004717 | 64 | 177 | 3.0 | 11.0 | 0.00 | 0.00 | 0.00 | 59 | 1007.3 |
| 20260506004216 | 64 | 202 | 5.0 | 9.0 | 0.00 | 0.00 | 0.00 | 59 | 1007.4 |
| 20260506003711 | 64 | 123 | 4.0 | 10.0 | 0.00 | 0.00 | 0.00 | 58 | 1007.3 |
| 20260506003208 | 65 | 139 | 4.0 | 12.0 | 0.00 | 0.00 | 0.00 | 58 | 1007.1 |
| 20260506002704 | 65 | 254 | 10.0 | 11.0 | 0.00 | 0.00 | 0.00 | 57 | 1007.1 |
| 20260506002200 | 65 | 145 | 4.0 | 13.0 | 0.00 | 0.00 | 0.00 | 57 | 1007.0 |
| 20260506001656 | 65 | 237 | 4.0 | 11.0 | 0.00 | 0.00 | 0.00 | 58 | 1007.0 |
| 20260506001154 | 65 | 167 | 5.0 | 9.0 | 0.00 | 0.00 | 0.00 | 57 | 1006.8 |
| 20260506000650 | 65 | 223 | 3.0 | 9.0 | 0.00 | 0.00 | 0.00 | 57 | 1006.8 |
| 20260506000148 | 66 | 143 | 3.0 | 12.0 | 0.00 | 0.00 | 0.00 | 56 | 1006.6 |
| 20260505235646 | 66 | 147 | 4.0 | 8.0 | 0.00 | 0.00 | 0.00 | 56 | 1006.6 |
| 20260505235143 | 66 | 152 | 4.0 | 6.0 | 0.00 | 0.00 | 0.00 | 55 | 1006.6 |
| 20260505234639 | 66 | 144 | 2.0 | 15.0 | 0.00 | 0.00 | 0.00 | 54 | 1006.6 |
| 20260505234136 | 67 | 168 | 3.0 | 9.0 | 0.00 | 0.00 | 0.00 | 54 | 1006.6 |
| 20260505233633 | 67 | 231 | 4.0 | 8.0 | 0.00 | 0.00 | 0.00 | 53 | 1006.5 |
| 20260505233131 | 67 | 240 | 7.0 | 8.0 | 0.00 | 0.00 | 0.00 | 53 | 1006.5 |
| 20260505232628 | 68 | 111 | 4.0 | 10.0 | 0.00 | 0.00 | 0.00 | 52 | 1006.3 |
| 20260505232126 | 68 | 231 | 5.0 | 13.0 | 0.00 | 0.00 | 0.00 | 52 | 1006.2 |
| 20260505231623 | 68 | 184 | 7.0 | 17.0 | 0.00 | 0.00 | 0.00 | 52 | 1006.2 |
| 20260505231121 | 69 | 75 | 3.0 | 6.0 | 0.00 | 0.00 | 0.00 | 51 | 1005.8 |
| 20260505230619 | 69 | 186 | 2.0 | 11.0 | 0.00 | 0.00 | 0.00 | 50 | 1005.8 |
| 20260505230115 | 69 | 99 | 3.0 | 11.0 | 0.00 | 0.00 | 0.00 | 49 | 1005.9 |
| 20260505225612 | 70 | 255 | 4.0 | 6.0 | 0.00 | 0.00 | 0.00 | 50 | 1005.8 |
| 20260505225108 | 70 | 264 | 4.0 | 15.0 | 0.00 | 0.00 | 0.00 | 48 | 1005.6 |
| 20260505224605 | 70 | 341 | 2.0 | 14.0 | 0.00 | 0.00 | 0.00 | 49 | 1005.7 |
| 20260505224102 | 71 | 126 | 4.0 | 10.0 | 0.00 | 0.00 | 0.00 | 48 | 1005.8 |
| 20260505223559 | 70 | 151 | 2.0 | 6.0 | 0.00 | 0.00 | 0.00 | 48 | 1005.8 |
| 20260505223055 | 71 | 178 | 4.0 | 6.0 | 0.00 | 0.00 | 0.00 | 47 | 1005.4 |
| 20260505222552 | 72 | 134 | 3.0 | 9.0 | 0.00 | 0.00 | 0.00 | 46 | 1005.4 |
| 20260505222048 | 72 | 208 | 0.0 | 11.0 | 0.00 | 0.00 | 0.00 | 45 | 1005.2 |
| 20260505221545 | 72 | 188 | 3.0 | 14.0 | 0.00 | 0.00 | 0.00 | 45 | 1005.3 |
| 20260505221041 | 73 | 128 | 5.0 | 13.0 | 0.00 | 0.00 | 0.00 | 45 | 1005.0 |
| 20260505220539 | 73 | 252 | 5.0 | 11.0 | 0.00 | 0.00 | 0.00 | 45 | 1005.0 |
| 20260505220037 | 73 | 203 | 4.0 | 13.0 | 0.00 | 0.00 | 0.00 | 45 | 1005.3 |
| 20260505215535 | 74 | 187 | 5.0 | 13.0 | 0.00 | 0.00 | 0.00 | 44 | 1005.5 |
| 20260505215032 | 74 | 258 | 5.0 | 16.0 | 0.00 | 0.00 | 0.00 | 44 | 1005.4 |
| 20260505214530 | 73 | 180 | 4.0 | 11.0 | 0.00 | 0.00 | 0.00 | 45 | 1005.4 |
| 20260505214026 | 73 | 156 | 2.0 | 9.0 | 0.00 | 0.00 | 0.00 | 46 | 1005.0 |
| 20260505213525 | 74 | 154 | 4.0 | 8.0 | 0.00 | 0.00 | 0.00 | 45 | 1005.2 |
| 20260505213021 | 74 | 205 | 5.0 | 14.0 | 0.00 | 0.00 | 0.00 | 44 | 1005.4 |
| 20260505212517 | 75 | 133 | 3.0 | 12.0 | 0.00 | 0.00 | 0.00 | 43 | 1005.3 |
| 20260505212014 | 76 | 170 | 6.0 | 15.0 | 0.00 | 0.00 | 0.00 | 42 | 1005.1 |
| 20260505211512 | 76 | 219 | 1.0 | 7.0 | 0.00 | 0.00 | 0.00 | 43 | 1004.9 |
| 20260505211008 | 76 | 195 | 5.0 | 19.0 | 0.00 | 0.00 | 0.00 | 42 | 1004.9 |
| 20260505210505 | 76 | 192 | 3.0 | 15.0 | 0.00 | 0.00 | 0.00 | 41 | 1005.1 |
| 20260505210001 | 77 | 228 | 5.0 | 12.0 | 0.00 | 0.00 | 0.00 | 41 | 1004.8 |
| 20260505205500 | 76 | 168 | 3.0 | 14.0 | 0.00 | 0.00 | 0.00 | 42 | 1004.8 |
| 20260505204956 | 76 | 231 | 15.0 | 17.0 | 0.00 | 0.00 | 0.00 | 40 | 1005.0 |
| 20260505204454 | 77 | 315 | 8.0 | 13.0 | 0.00 | 0.00 | 0.00 | 39 | 1005.1 |
| 20260505203951 | 77 | 239 | 10.0 | 13.0 | 0.00 | 0.00 | 0.00 | 40 | 1004.8 |
| 20260505203448 | 77 | 213 | 10.0 | 22.0 | 0.00 | 0.00 | 0.00 | 38 | 1005.0 |
| 20260505202944 | 78 | 167 | 9.0 | 17.0 | 0.00 | 0.00 | 0.00 | 38 | 1005.0 |
| 20260505202441 | 78 | 239 | 5.0 | 19.0 | 0.00 | 0.00 | 0.00 | 38 | 1005.0 |
| 20260505201937 | 79 | 139 | 5.0 | 11.0 | 0.00 | 0.00 | 0.00 | 38 | 1005.2 |
| 20260505201434 | 78 | 229 | 14.0 | 17.0 | 0.00 | 0.00 | 0.00 | 36 | 1005.1 |
| 20260505200932 | 79 | 161 | 7.0 | 13.0 | 0.00 | 0.00 | 0.00 | 37 | 1004.9 |
| 20260505200429 | 79 | 206 | 5.0 | 16.0 | 0.00 | 0.00 | 0.00 | 38 | 1004.8 |
| 20260505195925 | 79 | 176 | 4.0 | 16.0 | 0.00 | 0.00 | 0.00 | 36 | 1004.9 |
| 20260505195422 | 79 | 215 | 11.0 | 16.0 | 0.00 | 0.00 | 0.00 | 35 | 1005.1 |
| 20260505194920 | 79 | 224 | 11.0 | 23.0 | 0.00 | 0.00 | 0.00 | 36 | 1005.0 |
| 20260505194417 | 79 | 231 | 4.0 | 17.0 | 0.00 | 0.00 | 0.00 | 37 | 1004.6 |
| 20260505193916 | 80 | 230 | 15.0 | 15.0 | 0.00 | 0.00 | 0.00 | 35 | 1004.8 |
| 20260505193415 | 79 | 230 | 12.0 | 15.0 | 0.00 | 0.00 | 0.00 | 36 | 1004.8 |
| 20260505192912 | 80 | 213 | 8.0 | 21.0 | 0.00 | 0.00 | 0.00 | 35 | 1004.8 |
| 20260505192410 | 81 | 271 | 3.0 | 10.0 | 0.00 | 0.00 | 0.00 | 36 | 1004.9 |
| 20260505191908 | 79 | 281 | 8.0 | 22.0 | 0.00 | 0.00 | 0.00 | 35 | 1004.8 |
| 20260505191406 | 80 | 243 | 7.0 | 13.0 | 0.00 | 0.00 | 0.00 | 35 | 1005.0 |
| 20260505190902 | 80 | 235 | 12.0 | 16.0 | 0.00 | 0.00 | 0.00 | 36 | 1005.1 |
| 20260505190358 | 80 | 233 | 11.0 | 18.0 | 0.00 | 0.00 | 0.00 | 35 | 1005.3 |
| 20260505185858 | 79 | 167 | 8.0 | 17.0 | 0.00 | 0.00 | 0.00 | 35 | 1005.1 |
| 20260505185355 | 79 | 249 | 18.0 | 23.0 | 0.00 | 0.00 | 0.00 | 35 | 1005.4 |
| 20260505184852 | 79 | 219 | 6.0 | 28.0 | 0.00 | 0.00 | 0.00 | 34 | 1005.4 |
| 20260505184349 | 79 | 230 | 6.0 | 22.0 | 0.00 | 0.00 | 0.00 | 34 | 1005.4 |
| 20260505183846 | 80 | 221 | 9.0 | 14.0 | 0.00 | 0.00 | 0.00 | 35 | 1005.4 |
| 20260505183343 | 80 | 141 | 9.0 | 14.0 | 0.00 | 0.00 | 0.00 | 35 | 1005.5 |
| 20260505182839 | 80 | 223 | 9.0 | 17.0 | 0.00 | 0.00 | 0.00 | 36 | 1005.4 |
| 20260505182336 | 79 | 237 | 8.0 | 16.0 | 0.00 | 0.00 | 0.00 | 37 | 1005.2 |
| 20260505181833 | 79 | 235 | 11.0 | 13.0 | 0.00 | 0.00 | 0.00 | 36 | 1005.3 |
| 20260505181330 | 79 | 106 | 2.0 | 11.0 | 0.00 | 0.00 | 0.00 | 40 | 1005.4 |
| 20260505180827 | 79 | 212 | 5.0 | 13.0 | 0.00 | 0.00 | 0.00 | 39 | 1005.5 |
| 20260505180323 | 79 | 139 | 2.0 | 11.0 | 0.00 | 0.00 | 0.00 | 39 | 1005.5 |
| 20260505175820 | 79 | 229 | 3.0 | 10.0 | 0.00 | 0.00 | 0.00 | 38 | 1005.5 |
| 20260505175316 | 79 | 215 | 5.0 | 11.0 | 0.00 | 0.00 | 0.00 | 39 | 1005.7 |
| 20260505174813 | 79 | 151 | 5.0 | 18.0 | 0.00 | 0.00 | 0.00 | 40 | 1005.8 |
| 20260505174310 | 78 | 122 | 6.0 | 14.0 | 0.00 | 0.00 | 0.00 | 37 | 1005.8 |
| 20260505173806 | 78 | 144 | 5.0 | 17.0 | 0.00 | 0.00 | 0.00 | 38 | 1005.8 |
| 20260505173303 | 79 | 257 | 4.0 | 14.0 | 0.00 | 0.00 | 0.00 | 38 | 1005.8 |
| 20260505172759 | 78 | 171 | 3.0 | 13.0 | 0.00 | 0.00 | 0.00 | 40 | 1005.9 |
| 20260505172257 | 78 | 156 | 6.0 | 12.0 | 0.00 | 0.00 | 0.00 | 39 | 1005.9 |
| 20260505171752 | 78 | 137 | 1.0 | 11.0 | 0.00 | 0.00 | 0.00 | 41 | 1005.7 |
| 20260505171249 | 78 | 166 | 10.0 | 13.0 | 0.00 | 0.00 | 0.00 | 41 | 1006.2 |
| 20260505170745 | 78 | 131 | 6.0 | 12.0 | 0.00 | 0.00 | 0.00 | 40 | 1006.5 |
| 20260505170243 | 77 | 142 | 7.0 | 8.0 | 0.00 | 0.00 | 0.00 | 40 | 1006.3 |
| 20260505165744 | 77 | 129 | 6.0 | 9.0 | 0.00 | 0.00 | 0.00 | 41 | 1006.5 |
| 20260505165240 | 77 | 182 | 9.0 | 15.0 | 0.00 | 0.00 | 0.00 | 42 | 1006.7 |
| 20260505164735 | 77 | 145 | 4.0 | 8.0 | 0.00 | 0.00 | 0.00 | 43 | 1006.6 |
| 20260505164233 | 77 | 193 | 8.0 | 15.0 | 0.00 | 0.00 | 0.00 | 41 | 1006.7 |
| 20260505163731 | 77 | 229 | 9.0 | 12.0 | 0.00 | 0.00 | 0.00 | 42 | 1006.6 |
| 20260505163229 | 77 | 170 | 3.0 | 10.0 | 0.00 | 0.00 | 0.00 | 43 | 1007.0 |
| 20260505162726 | 76 | 120 | 3.0 | 7.0 | 0.00 | 0.00 | 0.00 | 43 | 1007.0 |
| 20260505162223 | 76 | 256 | 6.0 | 9.0 | 0.00 | 0.00 | 0.00 | 42 | 1007.0 |
| 20260505161720 | 76 | 167 | 7.0 | 8.0 | 0.00 | 0.00 | 0.00 | 42 | 1006.9 |
| 20260505161218 | 76 | 222 | 6.0 | 13.0 | 0.00 | 0.00 | 0.00 | 41 | 1007.3 |
| 20260505160715 | 76 | 70 | 2.0 | 7.0 | 0.00 | 0.00 | 0.00 | 42 | 1007.0 |
| 20260505160213 | 75 | 217 | 2.0 | 11.0 | 0.00 | 0.00 | 0.00 | 46 | 1007.2 |
| 20260505153152 | 74 | 177 | 2.0 | 12.0 | 0.00 | 0.00 | 0.00 | 44 | 1007.6 |
| 20260505152648 | 73 | 72 | 6.0 | 11.0 | 0.00 | 0.00 | 0.00 | 47 | 1007.8 |
| 20260505152144 | 72 | 210 | 3.0 | 4.0 | 0.00 | 0.00 | 0.00 | 49 | 1007.6 |
| 20260505151640 | 71 | 85 | 1.0 | 6.0 | 0.00 | 0.00 | 0.00 | 51 | 1008.0 |
| 20260505151137 | 71 | 158 | 1.0 | 6.0 | 0.00 | 0.00 | 0.00 | 51 | 1007.7 |
| 20260505150633 | 70 | 187 | 2.0 | 6.0 | 0.00 | 0.00 | 0.00 | 53 | 1007.7 |
| 20260505150130 | 69 | 234 | 5.0 | 5.0 | 0.00 | 0.00 | 0.00 | 52 | 1007.5 |
| 20260505140559 | 65 | 253 | 5.0 | 8.0 | 0.00 | 0.00 | 0.00 | 59 | 1007.6 |
| 20260505125012 | 60 | 148 | 4.0 | 4.0 | 0.00 | 0.00 | 0.00 | 68 | 1008.1 |
| 20260505124509 | 59 | 89 | 0.0 | 2.0 | 0.00 | 0.00 | 0.00 | 70 | 1008.1 |
| 20260505124005 | 60 | 142 | 3.0 | 5.0 | 0.00 | 0.00 | 0.00 | 68 | 1008.3 |
| 20260505123502 | 59 | 141 | 2.0 | 4.0 | 0.00 | 0.00 | 0.00 | 71 | 1008.3 |
| 20260505122958 | 58 | 149 | 8.0 | 11.0 | 0.00 | 0.00 | 0.00 | 71 | 1008.4 |
| 20260505122455 | 57 | 116 | 4.0 | 5.0 | 0.00 | 0.00 | 0.00 | 73 | 1008.3 |
| 20260505121952 | 56 | 331 | 2.0 | 6.0 | 0.00 | 0.00 | 0.00 | 75 | 1008.4 |
| 20260505121449 | 56 | 226 | 5.0 | 5.0 | 0.00 | 0.00 | 0.00 | 74 | 1008.2 |
| 20260505120945 | 56 | 121 | 2.0 | 6.0 | 0.00 | 0.00 | 0.00 | 74 | 1008.4 |
| 20260505120441 | 57 | 183 | 2.0 | 6.0 | 0.00 | 0.00 | 0.00 | 74 | 1008.2 |
| 20260505115940 | 56 | 161 | 1.0 | 4.0 | 0.00 | 0.00 | 0.00 | 75 | 1008.4 |
| 20260505115437 | 56 | 229 | 2.0 | 6.0 | 0.00 | 0.00 | 0.00 | 75 | 1008.3 |
| 20260505114935 | 56 | 27 | 1.0 | 7.0 | 0.00 | 0.00 | 0.00 | 75 | 1008.4 |
| 20260505114431 | 56 | 158 | 2.0 | 6.0 | 0.00 | 0.00 | 0.00 | 75 | 1007.9 |
| 20260505113927 | 56 | 99 | 0.0 | 4.0 | 0.00 | 0.00 | 0.00 | 76 | 1008.0 |
| 20260505113424 | 55 | 146 | 6.0 | 10.0 | 0.00 | 0.00 | 0.00 | 77 | 1008.1 |
| 20260505112920 | 55 | 151 | 5.0 | 10.0 | 0.00 | 0.00 | 0.00 | 78 | 1007.9 |
| 20260505112418 | 54 | 244 | 6.0 | 9.0 | 0.00 | 0.00 | 0.00 | 80 | 1008.0 |
| 20260505111914 | 54 | 220 | 2.0 | 8.0 | 0.00 | 0.00 | 0.00 | 81 | 1007.9 |
| 20260505111408 | 53 | 158 | 3.0 | 5.0 | 0.00 | 0.00 | 0.00 | 83 | 1007.9 |
| 20260505110905 | 52 | 154 | 2.0 | 4.0 | 0.00 | 0.00 | 0.00 | 85 | 1007.7 |
| 20260505110402 | 51 | 119 | 4.0 | 4.0 | 0.00 | 0.00 | 0.00 | 88 | 1007.8 |
| 20260505101833 | 47 | 108 | 3.0 | 4.0 | 0.00 | 0.00 | 0.00 | 93 | 1007.5 |
| 20260505101328 | 46 | 92 | 2.0 | 3.0 | 0.00 | 0.00 | 0.00 | 93 | 1007.4 |
| 20260505100824 | 46 | 88 | 3.0 | 3.0 | 0.00 | 0.00 | 0.00 | 93 | 1007.4 |
| 20260505100321 | 45 | 84 | 2.0 | 4.0 | 0.00 | 0.00 | 0.00 | 93 | 1007.4 |
| 20260505095816 | 45 | 91 | 2.0 | 3.0 | 0.00 | 0.00 | 0.00 | 92 | 1007.2 |
| 20260505095314 | 45 | 104 | 2.0 | 3.0 | 0.00 | 0.00 | 0.00 | 92 | 1007.7 |
| 20260505094809 | 45 | 68 | 0.0 | 2.0 | 0.00 | 0.00 | 0.00 | 92 | 1007.4 |
| 20260505094307 | 46 | 109 | 0.0 | 2.0 | 0.00 | 0.00 | 0.00 | 92 | 1007.4 |
| 20260505093802 | 46 | 59 | 1.0 | 2.0 | 0.00 | 0.00 | 0.00 | 92 | 1007.4 |
| 20260505093300 | 46 | 113 | 3.0 | 3.0 | 0.00 | 0.00 | 0.00 | 92 | 1007.7 |
| 20260505092757 | 46 | 96 | 3.0 | 4.0 | 0.00 | 0.00 | 0.00 | 91 | 1007.3 |
| 20260505092255 | 46 | 97 | 3.0 | 3.0 | 0.00 | 0.00 | 0.00 | 91 | 1007.3 |
| 20260505091752 | 46 | 88 | 2.0 | 6.0 | 0.00 | 0.00 | 0.00 | 92 | 1007.5 |
| 20260505091250 | 46 | 95 | 2.0 | 4.0 | 0.00 | 0.00 | 0.00 | 91 | 1007.5 |
| 20260505090748 | 46 | 111 | 2.0 | 5.0 | 0.00 | 0.00 | 0.00 | 91 | 1007.5 |
| 20260505090246 | 46 | 103 | 2.0 | 4.0 | 0.00 | 0.00 | 0.00 | 91 | 1007.5 |
| 20260505085743 | 46 | 87 | 2.0 | 3.0 | 0.00 | 0.00 | 0.00 | 90 | 1007.5 |
| 20260505085241 | 46 | 92 | 2.0 | 3.0 | 0.00 | 0.00 | 0.00 | 90 | 1007.7 |
| 20260505084738 | 46 | 96 | 2.0 | 3.0 | 0.00 | 0.00 | 0.00 | 89 | 1007.6 |
| 20260505084237 | 46 | 98 | 3.0 | 3.0 | 0.00 | 0.00 | 0.00 | 89 | 1007.6 |
| 20260505083734 | 46 | 97 | 3.0 | 3.0 | 0.00 | 0.00 | 0.00 | 88 | 1007.7 |
| 20260505083230 | 46 | 96 | 2.0 | 2.0 | 0.00 | 0.00 | 0.00 | 88 | 1007.8 |
| 20260505082726 | 46 | 71 | 1.0 | 3.0 | 0.00 | 0.00 | 0.00 | 88 | 1007.7 |
| 20260505082224 | 46 | 82 | 2.0 | 2.0 | 0.00 | 0.00 | 0.00 | 87 | 1007.7 |
| 20260505081719 | 47 | 103 | 3.0 | 3.0 | 0.00 | 0.00 | 0.00 | 86 | 1007.8 |
| 20260505081217 | 47 | 87 | 2.0 | 4.0 | 0.00 | 0.00 | 0.00 | 86 | 1007.8 |
| 20260505080714 | 47 | 91 | 2.0 | 4.0 | 0.00 | 0.00 | 0.00 | 85 | 1007.8 |
| 20260505080209 | 48 | 104 | 2.0 | 3.0 | 0.00 | 0.00 | 0.00 | 84 | 1007.9 |
| 20260505075706 | 48 | 123 | 3.0 | 4.0 | 0.00 | 0.00 | 0.00 | 83 | 1007.8 |
| 20260505075203 | 48 | 107 | 3.0 | 3.0 | 0.00 | 0.00 | 0.00 | 82 | 1007.9 |
| 20260505074700 | 49 | 107 | 2.0 | 4.0 | 0.00 | 0.00 | 0.00 | 81 | 1007.9 |
| 20260505074156 | 49 | 97 | 2.0 | 5.0 | 0.00 | 0.00 | 0.00 | 80 | 1007.9 |
| 20260505073654 | 50 | 116 | 3.0 | 4.0 | 0.00 | 0.00 | 0.00 | 79 | 1007.7 |
| 20260505073152 | 50 | 101 | 4.0 | 4.0 | 0.00 | 0.00 | 0.00 | 79 | 1007.9 |
| 20260505072648 | 50 | 96 | 2.0 | 4.0 | 0.00 | 0.00 | 0.00 | 78 | 1008.1 |
| 20260505072145 | 50 | 96 | 3.0 | 4.0 | 0.00 | 0.00 | 0.00 | 76 | 1007.8 |
| 20260505071640 | 50 | 102 | 2.0 | 5.0 | 0.00 | 0.00 | 0.00 | 76 | 1007.9 |
| 20260505071138 | 51 | 89 | 2.0 | 3.0 | 0.00 | 0.00 | 0.00 | 75 | 1007.7 |
| 20260505070635 | 50 | 120 | 2.0 | 3.0 | 0.00 | 0.00 | 0.00 | 74 | 1007.8 |
| 20260505070131 | 51 | 88 | 2.0 | 3.0 | 0.00 | 0.00 | 0.00 | 73 | 1008.1 |
| 20260505065627 | 52 | 85 | 2.0 | 2.0 | 0.00 | 0.00 | 0.00 | 71 | 1007.9 |
| 20260505065124 | 53 | 98 | 2.0 | 5.0 | 0.00 | 0.00 | 0.00 | 68 | 1008.0 |
| 20260505064621 | 55 | 72 | 2.0 | 5.0 | 0.00 | 0.00 | 0.00 | 64 | 1008.0 |
| 20260505064119 | 55 | 132 | 4.0 | 5.0 | 0.00 | 0.00 | 0.00 | 63 | 1008.1 |
| 20260505063616 | 55 | 150 | 2.0 | 4.0 | 0.00 | 0.00 | 0.00 | 63 | 1008.0 |
| 20260505063112 | 55 | 50 | 0.0 | 3.0 | 0.00 | 0.00 | 0.00 | 62 | 1007.9 |
| 20260505062609 | 55 | 124 | 1.0 | 7.0 | 0.00 | 0.00 | 0.00 | 62 | 1008.1 |
| 20260505062106 | 55 | 125 | 2.0 | 5.0 | 0.00 | 0.00 | 0.00 | 62 | 1008.0 |
| 20260505061603 | 55 | 228 | 5.0 | 7.0 | 0.00 | 0.00 | 0.00 | 62 | 1007.9 |
| 20260505061101 | 55 | 106 | 2.0 | 8.0 | 0.00 | 0.00 | 0.00 | 63 | 1007.9 |
| 20260505060558 | 55 | 209 | 5.0 | 7.0 | 0.00 | 0.00 | 0.00 | 64 | 1008.1 |
| 20260505060055 | 54 | 240 | 4.0 | 13.0 | 0.00 | 0.00 | 0.00 | 64 | 1008.1 |
| 20260505055550 | 54 | 219 | 6.0 | 10.0 | 0.00 | 0.00 | 0.00 | 65 | 1008.2 |
| 20260505055047 | 54 | 349 | 3.0 | 10.0 | 0.00 | 0.00 | 0.00 | 65 | 1007.9 |
| 20260505054544 | 54 | 221 | 5.0 | 9.0 | 0.00 | 0.00 | 0.00 | 65 | 1008.2 |
| 20260505054043 | 54 | 181 | 4.0 | 13.0 | 0.00 | 0.00 | 0.00 | 65 | 1008.1 |
| 20260505053539 | 54 | 211 | 4.0 | 15.0 | 0.00 | 0.00 | 0.00 | 65 | 1008.2 |
| 20260505053036 | 54 | 194 | 2.0 | 6.0 | 0.00 | 0.00 | 0.00 | 66 | 1008.0 |
| 20260505052533 | 54 | 169 | 4.0 | 13.0 | 0.00 | 0.00 | 0.00 | 66 | 1008.0 |
| 20260505052031 | 54 | 235 | 12.0 | 13.0 | 0.00 | 0.00 | 0.00 | 66 | 1008.1 |
| 20260505051527 | 54 | 224 | 8.0 | 9.0 | 0.00 | 0.00 | 0.00 | 66 | 1008.0 |
| 20260505051025 | 54 | 215 | 8.0 | 11.0 | 0.00 | 0.00 | 0.00 | 65 | 1008.1 |
| 20260505050523 | 55 | 168 | 4.0 | 9.0 | 0.00 | 0.00 | 0.00 | 64 | 1008.2 |
| 20260505041451 | 54 | 273 | 2.0 | 5.0 | 0.00 | 0.00 | 0.00 | 67 | 1008.2 |
| 20260505040948 | 53 | 226 | 6.0 | 6.0 | 0.00 | 0.00 | 0.00 | 67 | 1008.3 |
| 20260505040446 | 54 | 200 | 2.0 | 7.0 | 0.00 | 0.00 | 0.00 | 67 | 1008.4 |
| 20260505035942 | 54 | 264 | 2.0 | 7.0 | 0.00 | 0.00 | 0.00 | 67 | 1008.4 |
| 20260505035438 | 54 | 183 | 2.0 | 9.0 | 0.00 | 0.00 | 0.00 | 66 | 1008.4 |